Regional Weather Roundup
Issued by NWS

Home | Current Version | Previous Version | Text Only | Print | Product List | Glossary On
Versions: 1 2 3 4 5 6 7 8 9 10 11 12 13 14 15 16 17 18 19 20 21 22 23 24 25 26 27 28 29 30 31 32 33 34 35 36 37 38 39 40 41 42 43 44 45 46 47 48 49 50
000
ASUS46 KSEW 302010
RWRWA

WASHINGTON REGIONAL WEATHER ROUNDUP
NATIONAL WEATHER SERVICE SEATTLE WA
100 PM PDT FRI SEP 30 2016

NOTE:"FAIR" INDICATES FEW OR NO CLOUDS BELOW 12,000 FEET WITH NO
SIGNIFICANT WEATHER AND/OR OBSTRUCTIONS TO VISIBILITY.

WAZ505-507>509-302100-
SEATTLE, TACOMA, EVERETT, AND VICINITY

CITY           SKY/WX    TMP DP  RH WIND       PRES   REMARKS
EVERETT        SUNNY     60  46  59 VRB3      30.01F
BOEING FIELD   MOSUNNY   62  48  60 CALM      30.00F
RENTON         SUNNY     60  48  64 N5        30.00F
SEATAC AIRPORT MOSUNNY   57  47  69 W6        30.01F
JBLM-MCCHORD   SUNNY     57  50  79 N5        30.01F
PUYALLUP       FAIR      61  48  63 CALM      30.00F
BREMERTON      MOSUNNY   61  48  63 SE3       30.04F
JBLM-FT LEWIS  SUNNY     57  50  77 VRB2      30.00F
TACOMA NARROWS MOSUNNY   53  48  83 VRB5      30.02F HAZE
$$

WAZ001-503-506-510-514-515-302100-
NORTH INTERIOR

CITY           SKY/WX    TMP DP  RH WIND       PRES   REMARKS
BELLINGHAM     SUNNY     57  45  64 S8        30.00F
FRIDAY HARBOR  SUNNY     57  47  69 SE5       30.02F
EASTSOUND      SUNNY     54  48  82 N5        30.00F
PORT ANGELES   SUNNY     55  46  71 N5        30.02F
EDIZ HOOK      NOT AVBL
PORT TOWNSEND  FAIR      61  48  63 CALM      30.01F
NAS WHIDBEY    FOG       51  47  86 VRB6      30.06S VSB 1/4
ARLINGTON      SUNNY     61  43  51 NW7       30.01F
BURLINGTON     SUNNY     61  48  63 CALM      30.00F
$$

WAZ020-022-039-040-504-511-512-302100-
SOUTHWEST INTERIOR

CITY           SKY/WX    TMP DP  RH WIND       PRES   REMARKS
SHELTON        SUNNY     58  48  69 VRB3      29.99F
OLYMPIA        MOSUNNY   55  47  74 CALM      30.01F
CHEHALIS       FAIR      57  50  77 CALM      30.01F
KELSO          SUNNY     60  48  64 VRB3      30.01F
VANCOUVER      SUNNY     59  47  64 SE3       30.01F
SCAPPOOSE, OR  SUNNY     60  48  64 S3        30.00F
PORTLAND, OR   MOSUNNY   60  48  64 CALM      30.02F
$$

WAZ021-516-517-302100-
WASHINGTON COAST

CITY           SKY/WX    TMP DP  RH WIND       PRES   REMARKS
FORKS          SUNNY     61  44  53 VRB6      30.00F
HOQUIAM        SUNNY     56  51  84 SW7       30.01F
ASTORIA, OR    SUNNY     59  49  69 SW14      30.02S
$$

WAZ019-023-024-040-518-519-302100-
CASCADE MOUNTAINS AND COLUMBIA GORGE

CITY           SKY/WX    TMP DP  RH WIND       PRES   REMARKS
STAMPEDE PASS  SUNNY     52  36  54 VRB6      29.98F
TROUTDALE, OR  SUNNY     61  49  64 CALM      30.02F
THE DALLES, OR SUNNY     72  32  23 NW15      29.92F
$$

WAZ026-027-041>044-520-521-302100-
EAST SLOPES

CITY           SKY/WX    TMP DP  RH WIND       PRES   REMARKS
OMAK           CLOUDY    64  43  46 S5        29.94F
WENATCHEE      MOSUNNY   70  40  33 SE8       29.91F
ELLENSBURG     SUNNY     70  33  25 VRB6      29.92F
YAKIMA         SUNNY     71  33  24 VRB3      29.91F
$$

WAZ028-034-035-302100-
COLUMBIA BASIN

CITY           SKY/WX    TMP DP  RH WIND       PRES   REMARKS
EPHRATA        PTSUNNY   64  48  56 SE3       29.93F
MOSES LAKE     PTSUNNY   64  48  56 SE6       29.94F
PASCO          MOSUNNY   75  39  27 VRB3      29.90F
HERMISTON, OR  PTSUNNY   71  34  25 W5        29.90F
$$

WAZ036>038-302100-
NORTHEAST WASHINGTON

CITY           SKY/WX    TMP DP  RH WIND       PRES   REMARKS
SPOKANE GEIGER LGT RAIN  70  44  39 S5        29.96F
SPOKANE FELTS  PTSUNNY   70  51  51 S3        29.95F
FAIRCHILD AFB  MOSUNNY   70  41  35 SW6       29.96F
COEURDALENE,ID SUNNY     70  51  51 CALM      29.96F
DEER PARK      MOSUNNY   71  45  39 VRB5      29.95F
$$

WAZ029>033-302100-
SOUTHEAST WASHINGTON

CITY           SKY/WX    TMP DP  RH WIND       PRES   REMARKS
PULLMAN        SUNNY     71  43  36 CALM      29.97F
LEWISTON, ID   SUNNY     75  46  35 CALM      29.91F
WALLA WALLA    MOSUNNY   72  41  32 CALM      29.91F
PENDLETON, OR  PTSUNNY   71  34  25 NW8       29.91F
$$



USA.gov is the U.S. government's official web portal to all federal, state and local government web resources and services.